Regional Weather Roundup
Issued by NWS Charleston, SC

Current Version | Previous Version | Graphics & Text | Print | Product List | Glossary On
Versions: 1 2 3 4 5 6 7 8 9 10 11 12 13 14 15 16 17 18 19 20 21 22 23 24 25 26 27 28 29 30 31 32 33 34 35 36 37 38 39 40 41 42 43 44 45 46 47 48 49 50
000
ASUS42 KCHS 240125
RWRCHS

REGIONAL WEATHER ROUNDUP
NATIONAL WEATHER SERVICE CHARLESTON SC
900 PM EDT WED JUL 23 2014

NOTE: "FAIR" INDICATES FEW OR NO CLOUDS BELOW 12,000 FEET WITH NO
SIGNIFICANT WEATHER AND/OR OBSTRUCTIONS TO VISIBILITY.

NOT ALL STATIONS ARE QUALITY CONTROLLED BY THE NATIONAL
WEATHER SERVICE. USE DATA WITH CAUTION...ESPECIALLY
DEWPOINT OBSERVATIONS.

SCZ027-030-031-034>040-042>050-240200-
...SOUTH CAROLINA...

CITY           SKY/WX    TMP DP  RH WIND       PRES   REMARKS
N CHARLESTON   MOCLDY    81  75  82 SW6       29.99R
WATERFRONT PRK   N/A     84 N/A N/A SW8         N/A
FORT JOHNSON   NOT AVBL
MOUNT PLEASANT FAIR      81  75  83 SW6       29.99R
JOHNS ISLAND   CLEAR     82  72  69 CALM      29.99S
PINOPOLIS        N/A     82  73  74 S2        29.90F
MONCKS CORNER    N/A     81  77  89 CALM      29.98S
SUMMERVILLE    FAIR      79  77  94 CALM      29.99S
BEAUFORT MCAS  MOCLDY    83  76  79 SW5       29.99R HX  91
BEAUFORT ARPT  FAIR      82  77  83 S3        29.98S HX  91
HILTON HEAD IS PTCLDY    82  77  83 S6        30.00R HX  91
GEORGETOWN     NOT AVBL
WALTERBORO     PTCLDY    79  79 100 SE3       29.99S
ORANGEBURG     PTCLDY    83  74  74 S7        29.98R
BARNWELL       FAIR      82  73  74 CALM      29.98S
AIKEN          MOCLDY    79  73  83 CALM      30.02F
MANNING        FAIR      82  77  83 S3        29.97S HX  91
KINGSTREE      NOT AVBL
COLUMBIA       PTCLDY    86  69  56 SW5       29.96R HX  90
SUMTER         CLEAR     83  77  82 S3        29.95R HX  91
FLORENCE       CLEAR     82  75  79 S8        29.95S
MYRTLE BEACH   CLEAR     81  73  78 SW7       29.97S
N MYRTLE BEACH MOCLDY    81  75  82 SW10      29.97R

$$

GAZ063-065-086>088-099>101-113>116-118-119-134-136>141-150-240200-
...GEORGIA...

CITY           SKY/WX    TMP DP  RH WIND       PRES   REMARKS
SAVANNAH ARPT  MOCLDY    83  74  74 S6        29.99R
HUNTER AAF     PTCLDY    83  76  79 S6        29.97S HX  90
FORT STEWART   PTCLDY    82  75  79 SE3       29.98R
STATESBORO     NOT AVBL
SYLVANIA       CLEAR     84  79  84 S3        29.99R HX  96
CLAXTON        FAIR      84  81  89 CALM      29.97S HX  98
THOMSON        CLEAR     81  78  90 CALM      30.01F
AUGUSTA-BUSH   PTCLDY    82  72  71 NW7       29.97R
AUGUSTA-DANIEL PTCLDY    81  71  71 W5        29.99S
SWAINSBORO     FAIR      81  77  89 CALM      29.99R
VIDALIA          N/A     81  72  74 CALM      29.98S
ALMA           CLEAR     83  69  62 S3        29.97S
WAYCROSS       PTCLDY    88  76  67 S5        29.98R HX  99
JESUP          NOT AVBL
BRUNSWICK      MOCLDY    84  75  74 CALM      30.00S HX  92
SAINT SIMONS   MOCLDY    83  75  77 S10       30.00R HX  90

$$

SCZ027-028-034-036>038-045-046-048>050-GAZ119-141-240200-
...LAKE AND SUPPLEMENTAL COASTAL OBSERVATIONS...

STATION/POSITION TIME  TEMP    WIND        PRES    WAVE   SWELL
                       AIR SEA DIR/SP/G            HT/PER HT/PER/DIR
                 (UTC) (F)     (DEG/KT/KT) (MB)    (FT/S) (FT/S/D)
UPR LAKE MARION  NOT AVBL
WINYAH BAY       0100   81     220/  7     1015.0S
LAKE MURRAY      0000   87     230/  6/  8 1013.9R
ACE BASIN NERRS  0100   82        CALM     1015.0F
FORT PULASKI     0100   83     180/  5/  9 1015.7R
SAPELO ISLAND    0000   85     160/  9     1016.0S

$$

ANZ835-935-AMZ111-154-330-350-352-354-374-450-454-472-240200-
...C-MAN AND BUOY OBSERVATIONS...

STATION/POSITION TIME  TEMP    WIND        PRES    WAVE   SWELL
                       AIR SEA DIR/SP/G            HT/PER HT/PER/DIR
                 (UTC) (F)     (DEG/KT/KT) (MB)    (FT/S) (FT/S/D)
FOLLY BEACH CMAN 0100   82     200/ 11/ 13 1015.8S
BUOY 41004       0100   82 83  210/ 10/ 12 1015.1S   3/ 7   2/ 7
BUOY 41008       0100   83 85  170/ 12/ 16 1015.4S   2/ 7   2/110/ 7
5E ST. MARYS GA  0100      84                N/A     2/ 7
FRYING PAN BUOY  NOT AVBL
BUOY 41025       0100          VRB 19/ 23  1013.7R   4/ 4   2/170/ 7
CAPE LOOKOUT NC  0100   80     230/  9/ 12 1014.4S
BUOY 41002       0008   82 82  210/ 17/ 19 1018.2F   4/ 5   2/ 90/10
BUOY 41010       0100   82 84  190/  8/ 10 1018.0R   3/ 7   3/120/ 7
BUOY 41012       NOT AVBL
ST AUGUSTINE FL  0100   83     190/ 10/ 12 1016.8R
CAPERS NEARSHORE 0000   83     230/ 12/ 14   N/A
FRIPP NEARSHORE  NOT AVBL


$$


USA.gov is the U.S. government's official web portal to all federal, state and local government web resources and services.